Location: Saint Louis
(38.6272°N, 90.1978°W)
Time: 17:33:34
(UTC-05:00)

Hubble Space Telescope - Visible Passes

Search period start: 30 April 2016 00:00
Search period end: 10 May 2016 00:00
Orbit: 539 x 543 km, 28.5° (Epoch: 30 April)

Date Brightness Start Highest point End Pass type
(mag) Time Alt. Az. Time Alt. Az. Time Alt. Az.
30 Apr 3.0 04:27:07 12° SSE 04:27:23 12° SSE 04:28:54 10° SE visible
01 May 2.9 04:17:54 14° SSE 04:17:54 14° SSE 04:19:45 10° SE visible
02 May 2.9 04:08:42 15° SSE 04:08:42 15° SSE 04:10:22 10° SE visible
03 May 2.9 03:59:30 15° SSE 03:59:30 15° SSE 04:00:54 10° SE visible
04 May 3.0 03:50:20 14° SE 03:50:20 14° SE 03:51:20 10° SE visible
04 May 2.5 05:26:11 10° SW 05:29:06 19° S 05:32:00 10° SE visible
05 May 3.2 03:41:14 12° SE 03:41:14 12° SE 03:41:42 10° SE visible
05 May 2.5 05:16:38 10° SW 05:19:22 17° S 05:22:07 10° SSE visible
06 May 2.6 05:07:38 12° SW 05:09:38 16° S 05:12:10 10° SSE visible
07 May 2.6 04:58:43 13° SSW 04:59:53 14° SSW 05:02:06 10° SSE visible
08 May 2.8 04:49:58 12° SSW 04:50:09 12° SSW 04:51:50 10° S visible
